Location: Newark
(7.0858°N, 171.3717°E)
Time: 13:33:33
(UTC+00:00)

Hubble Space Telescope - Pass Details

Date: 01 October 2021
Orbit: 535 x 538 km, 28.5° (Epoch: 23 October)

Event Time Altitude Azimuth Distance (km) Brightness Sun altitude
Exits shadow 17:34:34 - 225° (SW) 1,827 3.1 -12.7°
Reaches altitude 10° 17:34:41 10° 225° (SW) 1,780 3.0 -12.7°
Maximum altitude 17:38:41 48° 150° (SSE) 696 1.6 -11.7°
Drops below altitude 10° 17:42:39 10° 75° (ENE) 1,776 4.7 -10.7°
Sets 17:44:57 0° 69° (ENE) 2,665 5.7 -10.1°
